Tracking 23731 objects as of 26-Sep-2021
HD Live streaming from Space Station
objects crossing your sky now

STARLINK-2319

Track STARLINK-2319 now!
10-day predictions
STARLINK-2319 is classified as:


NORAD ID: 47790
Int'l Code: 2021-018D
Perigee: 479.7 km
Apogee: 482.4 km
Inclination: 53.1 °
Period: 94.1 minutes
Semi major axis: 6852 km
RCS: Unknown
Launch date: March 11, 2021
Source: United States (US)
Launch site: AIR FORCE EASTERN TEST RANGE (AFETR)
aabbcc
Your satellite tracking list
Your tracking list is empty




NASA's NSSDC Master Catalog

Two Line Element Set (TLE):
1 47790U 21018D   21268.87983313  .00005884  00000-0  20784-3 0  9999
2 47790  53.0557 324.1948 0001951  49.1055 311.0113 15.30641591 31576
Source of the keplerian elements: AFSPC